"startDT [UTC]","vpos","CH4 [ppm]","stdev(CH4) [ppm]","CO2 [ppm]","stdev(CO2) [ppm]","H2O_reported [%]","stdev(H2O_reported)","CavityPressure [torr]","CavityTemp [C]","OutletValve","CH4_dry [ppm]","CO2_dry [ppm]","DasTemp [C]","EtalonTemp [C]","WarmBoxTemp [C]","MPVPosition","T_ECpre [C]","T_EC1 [C]","T_EC2 [C]","p_inlet [hPa]","p_in [hPa]","p_out [hPa]","T_inlet [C]","RH_inlet [%]","dwpt_inlet [C]","T_vent [C]","RH_vent [%]","dwpt_vent [C]","flow_vent [l min-1]","flow_inlet [l min-1]","dwpt_sample [C]","T_room [C]"
2015-04-10 00:00:00,3.0,1.87986,0.01413,399.304,2.205,0.0221,0.0312,139.924,44.999,31096.08564,1.88247,399.596,32.927,45.068,45.001,0.00,0.09,-272.72,-272.77,10,488,-4,22.1,3.2,-24.6,22.1,2.9,-25.5,5.73,1.81,-16.2,26.9
2015-04-10 00:01:00,3.0,1.87683,0.00038,397.216,0.047,0.0064,0.0019,139.998,44.999,31013.80347,1.87690,397.250,32.877,45.068,45.000,0.00,0.09,-272.71,-272.77,11,487,-4,22.0,3.2,-24.5,22.1,2.9,-25.3,5.73,1.69,-16.2,26.9
2015-04-10 00:02:00,3.0,1.87692,0.00035,397.282,0.094,0.0055,0.0019,139.999,44.999,30990.08846,1.87704,397.302,32.878,45.068,45.001,0.00,0.09,-272.73,-272.77,10,487,-4,22.0,3.2,-24.4,22.1,3.0,-25.1,5.73,1.58,-16.2,26.9
2015-04-10 00:03:00,3.0,1.87665,0.00051,397.526,0.070,0.0053,0.0019,140.002,45.000,30973.39446,1.87678,397.546,32.935,45.069,45.001,0.00,0.09,-272.72,-272.79,10,487,-4,22.1,3.2,-24.3,22.1,3.0,-25.0,5.73,1.60,-16.2,26.9
2015-04-10 00:04:00,3.0,1.87657,0.00032,397.593,0.028,0.0043,0.0019,139.999,45.000,30959.93076,1.87666,397.615,33.036,45.069,45.002,0.00,0.09,-272.72,-272.78,10,488,-4,22.1,3.2,-24.2,22.2,3.0,-24.9,5.73,1.68,-16.2,27.0
2015-04-10 00:05:00,3.0,1.87645,0.00034,397.614,0.022,0.0037,0.0016,140.001,45.001,30952.49266,1.87652,397.632,33.161,45.070,45.002,0.00,0.09,-272.73,-272.78,11,488,-4,22.2,3.2,-24.3,22.2,3.0,-24.9,5.73,1.74,-16.2,27.0
2015-04-10 00:06:00,3.0,1.87664,0.00024,397.592,0.027,0.0031,0.0016,140.000,45.001,30944.06335,1.87667,397.606,33.285,45.069,45.002,0.00,0.09,-272.73,-272.78,11,489,-3,22.2,3.2,-24.3,22.2,3.1,-24.8,5.73,1.73,-16.2,27.1
2015-04-10 00:07:00,3.0,1.87660,0.00037,397.611,0.029,0.0026,0.0018,140.001,45.002,30939.81408,1.87666,397.624,33.404,45.069,45.001,0.00,0.09,-272.72,-272.78,9,490,-1,22.3,3.2,-24.2,22.3,3.1,-24.7,5.73,1.70,-16.2,27.1
2015-04-10 00:08:00,3.0,1.87636,0.00040,397.599,0.031,0.0021,0.0021,140.004,45.002,30939.33952,1.87641,397.609,33.534,45.069,45.001,0.00,0.09,-272.72,-272.78,10,489,-4,22.3,3.2,-24.1,22.3,3.1,-24.7,5.73,1.64,-16.2,27.2
2015-04-10 00:09:00,3.0,1.87644,0.00038,397.596,0.031,0.0017,0.0024,139.998,45.002,30935.36974,1.87648,397.606,33.666,45.068,45.000,0.00,0.09,-272.73,-272.79,10,489,-4,22.3,3.2,-24.2,22.3,3.1,-24.7,5.73,1.61,-16.2,27.3
2015-04-10 00:10:00,3.0,1.87641,0.00029,397.609,0.029,0.0013,0.0014,139.998,45.002,30934.12255,1.87643,397.616,33.801,45.068,45.000,0.00,0.09,-272.72,-272.77,11,489,-3,22.4,3.2,-24.1,22.4,3.0,-24.7,5.73,1.62,-16.2,27.3
2015-04-10 00:11:00,3.0,1.87664,0.00038,397.585,0.032,0.0010,0.0015,140.001,45.002,30936.48795,1.87663,397.588,33.935,45.068,45.000,0.00,0.09,-272.72,-272.78,10,489,-4,22.5,3.2,-24.2,22.4,3.0,-24.7,5.73,1.66,-16.2,27.4
2015-04-10 00:12:00,3.0,1.87649,0.00037,397.609,0.021,0.0016,0.0020,139.998,45.002,30936.71547,1.87655,397.617,34.044,45.068,45.000,0.00,0.09,-272.73,-272.78,8,490,-5,22.5,3.1,-24.3,22.5,3.0,-24.7,5.73,1.70,-16.2,27.4
2015-04-10 00:13:00,3.0,1.87650,0.00035,397.630,0.025,0.0018,0.0019,140.000,45.002,30938.87326,1.87652,397.638,34.162,45.067,45.000,0.00,0.09,-272.73,-272.78,10,490,-4,22.6,3.1,-24.3,22.5,3.1,-24.6,5.73,1.74,-16.2,27.5
2015-04-10 00:14:00,3.0,1.87643,0.00036,397.604,0.032,0.0012,0.0019,139.999,45.002,30941.24269,1.87645,397.609,34.271,45.067,45.000,0.00,0.09,-272.72,-272.77,10,490,-3,22.6,3.1,-24.2,22.6,3.1,-24.5,5.73,1.73,-16.2,27.6
2015-04-10 00:15:00,3.0,1.87640,0.00045,397.613,0.030,0.0001,0.0011,139.999,45.002,30943.22177,1.87641,397.613,34.387,45.067,45.000,0.00,0.09,-272.72,-272.78,10,490,-4,22.7,3.1,-24.2,22.6,3.1,-24.4,5.73,1.70,-16.2,27.6
2015-04-10 00:16:00,3.0,1.87610,0.00047,397.583,0.027,0.0005,0.0016,140.001,45.002,30949.55436,1.87613,397.586,34.495,45.067,45.000,0.00,0.09,-272.73,-272.79,10,490,-4,22.7,3.1,-24.1,22.7,3.1,-24.3,5.73,1.65,-16.2,27.7
2015-04-10 00:17:00,3.0,1.87609,0.00024,397.590,0.035,0.0000,0.0015,140.003,45.002,30954.38877,1.87607,397.589,34.578,45.068,45.000,0.00,0.09,-272.71,-272.78,10,490,-4,22.8,3.2,-24.0,22.7,3.1,-24.2,5.73,1.62,-16.2,27.8
2015-04-10 00:18:00,3.0,1.87637,0.00046,397.616,0.036,0.0002,0.0023,139.998,45.002,30954.42443,1.87638,397.619,34.671,45.068,45.000,0.00,0.09,-272.72,-272.78,10,490,-4,22.9,3.2,-23.8,22.8,3.1,-24.2,5.73,1.61,-16.2,27.9
2015-04-10 00:19:00,3.0,1.87637,0.00031,397.604,0.040,0.0002,0.0016,140.000,45.002,30957.68111,1.87636,397.607,34.772,45.068,45.000,0.00,0.09,-272.72,-272.79,9,491,-4,22.9,3.2,-23.7,22.8,3.1,-24.2,5.73,1.64,-16.1,27.9
2015-04-10 00:20:00,0.0,1.92074,0.01118,405.499,2.973,0.0894,0.0358,140.077,45.001,32212.08067,1.92039,405.760,34.867,45.068,45.000,0.00,0.09,-272.72,-272.78,4,687,-4,23.0,3.2,-23.8,22.9,3.1,-24.1,5.73,1.87,-16.1,28.0
2015-04-10 00:21:00,0.0,1.92401,0.00036,404.897,0.044,0.1038,0.0014,140.001,45.001,32298.23220,1.92601,405.408,34.946,45.068,45.000,0.00,0.09,-272.72,-272.77,5,687,-4,23.0,3.1,-24.1,22.9,3.1,-24.1,5.73,1.89,-16.1,28.1
2015-04-10 00:22:00,0.0,1.92393,0.00033,404.852,0.033,0.1057,0.0012,139.999,45.001,32324.37290,1.92590,405.369,35.004,45.068,45.000,0.00,0.09,-272.72,-272.78,4,687,-4,23.1,3.1,-24.1,22.9,3.1,-24.1,5.73,1.67,-16.1,28.1
2015-04-10 00:23:00,0.0,1.92381,0.00046,404.817,0.036,0.1062,0.0028,139.999,45.002,32345.33356,1.92586,405.334,35.075,45.068,45.000,0.00,0.09,-272.73,-272.78,5,687,-4,23.1,3.1,-24.0,23.0,3.1,-24.0,5.73,1.96,-16.1,28.2
2015-04-10 00:24:00,0.0,1.92396,0.00028,404.810,0.028,0.1091,0.0018,140.003,45.001,32365.40737,1.92598,405.343,35.160,45.068,45.000,0.00,0.09,-272.72,-272.77,3,687,-4,23.2,3.1,-23.9,23.0,3.1,-24.0,5.73,1.81,-16.1,28.2
2015-04-10 00:25:00,0.0,1.92387,0.00040,404.795,0.045,0.1099,0.0015,140.000,45.001,32381.98554,1.92598,405.332,35.212,45.068,45.000,0.00,0.09,-272.72,-272.77,5,687,-4,23.2,3.1,-23.9,23.0,3.1,-24.1,5.73,1.71,-16.0,28.3
2015-04-10 00:26:00,0.0,1.92381,0.00046,404.762,0.036,0.1101,0.0016,139.999,45.001,32396.63371,1.92590,405.298,35.236,45.067,45.000,0.00,0.09,-272.72,-272.77,4,688,-4,23.2,3.1,-23.9,23.1,3.1,-24.1,5.73,2.00,-16.0,28.3
2015-04-10 00:27:00,0.0,1.92397,0.00044,404.787,0.031,0.1104,0.0017,140.000,45.000,32406.77897,1.92606,405.326,35.180,45.067,44.999,0.00,0.09,-272.72,-272.78,5,688,-4,23.2,3.2,-23.8,23.1,3.1,-24.1,5.73,1.64,-16.0,28.4
2015-04-10 00:28:00,0.0,1.92378,0.00035,404.771,0.029,0.1108,0.0014,140.004,45.000,32416.60514,1.92589,405.311,35.091,45.066,44.999,0.00,0.09,-272.72,-272.77,3,688,-4,23.1,3.2,-23.7,23.1,3.1,-24.1,5.73,2.00,-16.0,28.3
2015-04-10 00:29:00,0.0,1.92383,0.00036,404.815,0.031,0.1136,0.0022,140.002,44.999,32422.06711,1.92597,405.369,34.990,45.066,44.998,0.00,0.09,-272.71,-272.77,5,688,-4,23.1,3.2,-23.5,23.0,3.1,-24.1,5.73,1.63,-16.0,28.2
2015-04-10 00:30:00,0.0,1.92396,0.00030,404.844,0.030,0.1134,0.0018,140.003,44.999,32426.33306,1.92611,405.397,34.859,45.065,44.998,0.00,0.09,-272.72,-272.78,3,689,-4,23.1,3.3,-23.5,23.0,3.1,-24.1,5.73,2.01,-16.0,28.1
2015-04-10 00:31:00,0.0,1.92408,0.00038,404.877,0.031,0.1145,0.0016,139.999,44.998,32426.78960,1.92624,405.434,34.697,45.066,44.998,0.00,0.09,-272.71,-272.77,5,689,-4,23.0,3.3,-23.3,22.9,3.1,-24.2,5.73,1.62,-16.0,28.2
2015-04-10 00:32:00,0.0,1.92511,0.00059,404.830,0.035,0.1147,0.0018,140.001,44.998,32427.58345,1.92723,405.389,34.512,45.066,44.999,0.00,0.09,-272.72,-272.78,4,689,-4,23.0,3.3,-23.4,22.9,3.1,-24.1,5.73,2.00,-16.0,28.1
2015-04-10 00:33:00,0.0,1.92741,0.00072,404.903,0.032,0.1155,0.0019,139.999,44.997,32430.39341,1.92952,405.466,34.330,45.066,44.999,0.00,0.09,-272.72,-272.79,4,690,-4,23.0,3.3,-23.3,22.9,3.2,-24.0,5.73,1.71,-16.0,27.9
2015-04-10 00:34:00,0.0,1.92834,0.00046,404.837,0.037,0.1170,0.0017,140.001,44.997,32430.84832,1.93053,405.409,34.126,45.067,45.000,0.00,0.09,-272.72,-272.77,5,690,-4,22.9,3.3,-23.3,22.8,3.1,-24.1,5.73,1.82,-16.0,27.6
2015-04-10 00:35:00,0.0,1.92842,0.00040,404.833,0.034,0.1178,0.0017,140.000,44.997,32426.85280,1.93068,405.407,33.954,45.067,45.000,0.00,0.09,-272.72,-272.78,4,690,-4,22.9,3.4,-23.2,22.8,3.1,-24.2,5.73,1.94,-16.1,27.5
2015-04-10 00:36:00,0.0,1.92890,0.00028,404.801,0.045,0.1193,0.0016,140.001,44.997,32424.57181,1.93117,405.384,33.788,45.068,45.000,0.00,0.09,-272.72,-272.78,4,691,-4,22.9,3.4,-23.1,22.7,3.1,-24.2,5.73,1.62,-16.0,27.4
2015-04-10 00:37:00,0.0,1.92917,0.00042,404.766,0.035,0.1206,0.0016,140.000,44.997,32420.60298,1.93140,405.352,33.649,45.068,45.000,0.00,0.09,-272.72,-272.77,5,691,-4,22.8,3.5,-22.9,22.7,3.1,-24.2,5.73,2.01,-16.1,27.4
2015-04-10 00:38:00,0.0,1.92943,0.00023,404.757,0.032,0.1224,0.0020,139.999,44.997,32416.80804,1.93178,405.356,33.523,45.068,45.000,0.00,0.09,-272.72,-272.77,4,691,-4,22.8,3.5,-22.8,22.7,3.2,-24.1,5.73,1.69,-16.1,27.4
2015-04-10 00:39:00,0.0,1.92941,0.00038,404.747,0.028,0.1229,0.0009,140.000,44.998,32414.83407,1.93176,405.347,33.404,45.068,45.000,0.00,0.09,-272.72,-272.77,4,691,-4,22.8,3.5,-22.8,22.6,3.1,-24.2,5.73,1.87,-16.1,27.3
2015-04-10 00:40:00,0.0,1.92892,0.00038,404.766,0.044,0.1234,0.0014,139.998,44.998,32411.25033,1.93128,405.366,33.312,45.068,45.000,0.00,0.09,-272.72,-272.78,5,691,-4,22.8,3.5,-22.8,22.6,3.2,-24.2,5.73,1.84,-16.1,27.2
2015-04-10 00:41:00,0.0,1.92843,0.00040,404.744,0.022,0.1225,0.0026,139.999,44.998,32408.45357,1.93077,405.342,33.220,45.068,45.000,0.00,0.09,-272.72,-272.77,4,691,-4,22.7,3.5,-22.9,22.6,3.2,-24.1,5.73,1.76,-16.1,27.3
2015-04-10 00:42:00,0.0,1.92821,0.00058,404.746,0.034,0.1228,0.0019,139.998,44.999,32407.07546,1.93059,405.346,33.161,45.068,45.000,0.00,0.09,-272.72,-272.78,5,691,-4,22.6,3.5,-23.0,22.5,3.2,-24.1,5.73,1.90,-16.1,27.2
2015-04-10 00:43:00,0.0,1.92807,0.00037,404.765,0.042,0.1230,0.0016,140.000,44.999,32405.90497,1.93041,405.362,33.099,45.068,45.000,0.00,0.09,-272.72,-272.78,4,691,-4,22.6,3.6,-22.8,22.5,3.2,-24.1,5.73,1.75,-16.1,27.1
2015-04-10 00:44:00,0.0,1.92752,0.00035,404.775,0.029,0.1253,0.0019,140.000,44.999,32403.67670,1.92992,405.387,33.063,45.068,45.000,0.00,0.09,-272.72,-272.78,5,690,-4,22.6,3.6,-22.6,22.5,3.2,-24.1,5.73,1.86,-16.1,27.2
2015-04-10 00:45:00,0.0,1.92752,0.00040,404.793,0.038,0.1246,0.0018,139.999,44.999,32401.91264,1.92985,405.403,33.085,45.068,45.001,0.00,0.09,-272.72,-272.78,4,690,-4,22.6,3.6,-22.7,22.5,3.2,-24.0,5.73,1.87,-16.1,27.2
2015-04-10 00:46:00,0.0,1.92720,0.00042,404.807,0.052,0.1250,0.0017,140.004,45.000,32402.18817,1.92964,405.414,33.151,45.069,45.001,0.00,0.09,-272.72,-272.79,5,690,-4,22.6,3.6,-22.7,22.5,3.2,-24.0,5.73,1.71,-16.1,27.2
2015-04-10 00:47:00,0.0,1.92684,0.00042,404.776,0.032,0.1239,0.0012,139.999,45.001,32403.04913,1.92920,405.382,33.234,45.069,45.001,0.00,0.09,-272.73,-272.78,4,689,-4,22.6,3.6,-22.7,22.6,3.3,-23.8,5.73,2.00,-16.1,27.2
2015-04-10 00:48:00,0.0,1.92702,0.00061,404.784,0.029,0.1240,0.0009,140.001,45.001,32402.95838,1.92935,405.389,33.334,45.069,45.001,0.00,0.09,-272.72,-272.77,5,689,-4,22.7,3.6,-22.8,22.6,3.3,-23.8,5.73,1.67,-16.1,27.2
2015-04-10 00:49:00,0.0,1.92706,0.00044,404.792,0.037,0.1235,0.0023,140.001,45.001,32408.15623,1.92942,405.394,33.402,45.069,45.001,0.00,0.09,-272.72,-272.78,3,689,-4,22.7,3.6,-22.8,22.6,3.3,-23.7,5.73,1.93,-16.1,27.3
2015-04-10 00:50:00,0.0,1.92663,0.00039,404.776,0.036,0.1233,0.0019,139.999,45.001,32411.88268,1.92896,405.378,33.439,45.068,45.000,0.00,0.09,-272.72,-272.78,6,690,-4,22.7,3.5,-22.9,22.6,3.3,-23.7,5.73,1.79,-16.1,27.3
2015-04-10 00:51:00,0.0,1.92656,0.00041,404.791,0.032,0.1220,0.0017,139.997,45.001,32413.64016,1.92887,405.387,33.445,45.068,44.999,0.00,0.09,-272.72,-272.77,4,690,-4,22.6,3.5,-22.9,22.6,3.3,-23.7,5.73,1.81,-16.1,27.3
2015-04-10 00:52:00,0.0,1.92732,0.00035,404.768,0.026,0.1232,0.0018,140.003,45.000,32415.19782,1.92966,405.368,33.439,45.067,44.998,0.00,0.09,-272.73,-272.77,5,690,-4,22.5,3.5,-22.9,22.5,3.3,-23.6,5.73,1.85,-16.1,27.2
2015-04-10 00:53:00,0.0,1.92723,0.00034,404.793,0.037,0.1215,0.0016,139.997,45.000,32414.00012,1.92954,405.386,33.402,45.066,44.998,0.00,0.09,-272.72,-272.78,4,690,-4,22.5,3.5,-23.0,22.5,3.3,-23.6,5.73,1.82,-16.1,27.2
2015-04-10 00:54:00,0.0,1.92677,0.00044,404.738,0.034,0.1215,0.0010,140.000,44.999,32416.75624,1.92908,405.330,33.366,45.066,44.998,0.00,0.09,-272.72,-272.77,5,690,-4,22.5,3.5,-23.0,22.5,3.3,-23.6,5.73,1.79,-16.1,27.2
2015-04-10 00:55:00,0.0,1.92651,0.00043,404.761,0.042,0.1220,0.0010,139.998,44.999,32414.70391,1.92885,405.356,33.278,45.066,44.998,0.00,0.09,-272.71,-272.78,5,690,-4,22.5,3.6,-22.9,22.5,3.4,-23.6,5.73,1.92,-16.1,27.1
2015-04-10 00:56:00,0.0,1.92646,0.00039,404.780,0.045,0.1207,0.0015,139.998,44.999,32413.89051,1.92875,405.369,33.211,45.066,44.998,0.00,0.09,-272.73,-272.78,4,691,-4,22.5,3.5,-23.1,22.4,3.4,-23.5,5.73,1.66,-16.1,27.0
2015-04-10 00:57:00,0.0,1.92598,0.00046,404.739,0.033,0.1211,0.0016,139.999,44.999,32414.33995,1.92832,405.332,33.137,45.066,44.999,0.00,0.09,-272.72,-272.78,6,692,-3,22.5,3.5,-23.1,22.4,3.4,-23.6,5.73,2.02,-16.2,27.0
2015-04-10 00:58:00,0.0,1.92595,0.00046,404.771,0.040,0.1201,0.0018,139.999,44.998,32411.36770,1.92825,405.354,33.058,45.067,44.999,0.00,0.09,-272.71,-272.78,5,690,-4,22.4,3.5,-23.2,22.4,3.4,-23.5,5.73,1.63,-16.1,27.0
2015-04-10 00:59:00,0.0,1.92553,0.00039,404.773,0.031,0.1195,0.0016,140.001,44.998,32410.21139,1.92780,405.357,33.000,45.067,44.999,0.00,0.09,-272.73,-272.78,4,692,-3,22.4,3.5,-23.2,22.4,3.4,-23.5,5.73,2.01,-16.2,26.9
2015-04-10 01:00:00,0.0,1.92552,0.00034,404.762,0.038,0.1173,0.0013,139.997,44.999,32407.87683,1.92772,405.333,32.941,45.067,45.000,0.00,0.09,-272.72,-272.78,6,691,-3,22.4,3.4,-23.4,22.3,3.4,-23.5,5.73,1.68,-16.2,26.8
2015-04-10 01:01:00,0.0,1.92597,0.00050,404.825,0.056,0.1172,0.0021,140.000,44.999,32402.40540,1.92820,405.395,32.896,45.068,45.000,0.00,0.09,-272.72,-272.77,5,690,-3,22.3,3.5,-23.4,22.3,3.4,-23.5,5.73,1.95,-16.2,26.8
2015-04-10 01:02:00,0.0,1.92582,0.00042,404.830,0.026,0.1192,0.0018,140.002,44.999,32400.84921,1.92806,405.413,32.872,45.068,45.000,0.00,0.09,-272.72,-272.78,6,690,-4,22.3,3.5,-23.3,22.2,3.4,-23.5,5.73,1.72,-16.2,26.7
2015-04-10 01:03:00,0.0,1.92599,0.00039,404.811,0.038,0.1187,0.0017,140.001,44.999,32398.64466,1.92829,405.390,32.834,45.068,45.000,0.00,0.09,-272.73,-272.78,4,691,-3,22.2,3.5,-23.4,22.2,3.4,-23.6,5.73,1.94,-16.2,26.7
2015-04-10 01:04:00,0.0,1.92566,0.00034,404.802,0.032,0.1167,0.0014,139.999,44.999,32399.23269,1.92788,405.370,32.831,45.068,45.000,0.00,0.09,-272.72,-272.78,6,691,-3,22.2,3.4,-23.6,22.2,3.4,-23.5,5.73,1.71,-16.2,26.6
2015-04-10 01:05:00,0.0,1.92539,0.00041,404.856,0.032,0.1145,0.0013,139.999,44.999,32398.73146,1.92756,405.415,32.851,45.068,45.000,0.00,0.09,-272.73,-272.78,5,691,-3,22.1,3.4,-23.6,22.1,3.4,-23.6,5.73,1.98,-16.2,26.6
2015-04-10 01:06:00,0.0,1.92556,0.00033,404.803,0.049,0.1152,0.0013,140.001,45.000,32399.84362,1.92776,405.364,32.860,45.068,45.000,0.00,0.09,-272.73,-272.79,6,691,-3,22.2,3.4,-23.7,22.1,3.4,-23.6,5.73,1.65,-16.2,26.7
2015-04-10 01:07:00,0.0,1.92524,0.00042,404.889,0.039,0.1135,0.0016,140.000,45.000,32399.54898,1.92738,405.443,32.872,45.069,45.001,0.00,0.09,-272.73,-272.78,5,690,-3,22.2,3.4,-23.7,22.2,3.4,-23.5,5.73,2.02,-16.2,26.7
2015-04-10 01:08:00,0.0,1.92566,0.00022,404.854,0.039,0.1146,0.0022,140.002,45.001,32399.59452,1.92780,405.412,32.880,45.069,45.001,0.00,0.09,-272.72,-272.77,6,690,-3,22.2,3.4,-23.7,22.2,3.4,-23.5,5.73,1.67,-16.2,26.7
2015-04-10 01:09:00,0.0,1.92573,0.00050,404.838,0.050,0.1138,0.0021,139.999,45.000,32399.59694,1.92788,405.395,32.932,45.069,45.001,0.00,0.09,-272.72,-272.78,5,690,-3,22.2,3.4,-23.8,22.2,3.4,-23.5,5.73,1.95,-16.2,26.8
2015-04-10 01:10:00,0.0,1.92565,0.00035,404.836,0.044,0.1136,0.0012,139.998,45.000,32400.38659,1.92781,405.389,32.938,45.069,45.000,0.00,0.09,-272.72,-272.78,6,690,-3,22.1,3.4,-23.8,22.2,3.4,-23.5,5.73,1.76,-16.2,26.8
2015-04-10 01:11:00,0.0,1.92565,0.00032,404.838,0.045,0.1136,0.0016,140.000,45.000,32401.47423,1.92781,405.392,32.938,45.068,45.000,0.00,0.09,-272.72,-272.78,5,690,-3,22.1,3.4,-23.7,22.1,3.4,-23.5,5.73,1.87,-16.2,26.7
2015-04-10 01:12:00,0.0,1.92583,0.00041,404.825,0.043,0.1142,0.0022,139.997,45.000,32399.93195,1.92799,405.382,32.919,45.068,44.999,0.00,0.09,-272.72,-272.77,5,691,-3,22.1,3.4,-23.7,22.1,3.4,-23.6,5.73,1.79,-16.2,26.7
2015-04-10 01:13:00,0.0,1.92579,0.00032,404.767,0.031,0.1141,0.0018,140.001,45.000,32403.51193,1.92797,405.323,32.888,45.067,44.999,0.00,0.09,-272.72,-272.79,6,691,-3,22.1,3.4,-23.6,22.1,3.4,-23.5,5.73,1.87,-16.2,26.7
2015-04-10 01:14:00,0.0,1.92566,0.00030,404.759,0.028,0.1159,0.0012,139.998,45.000,32403.30866,1.92784,405.325,32.872,45.067,44.999,0.00,0.09,-272.72,-272.78,4,691,-3,22.1,3.5,-23.5,22.1,3.4,-23.6,5.73,1.75,-16.2,26.7
2015-04-10 01:15:00,0.0,1.92525,0.00038,404.772,0.040,0.1152,0.0015,139.997,44.999,32403.56876,1.92745,405.332,32.820,45.067,44.999,0.00,0.09,-272.72,-272.78,6,691,-3,22.1,3.5,-23.5,22.1,3.4,-23.6,5.73,1.93,-16.2,26.6
2015-04-10 01:16:00,0.0,1.92520,0.00031,404.822,0.040,0.1172,0.0018,140.001,44.999,32403.04750,1.92743,405.395,32.775,45.067,44.999,0.00,0.09,-272.73,-272.78,4,691,-3,22.1,3.5,-23.5,22.1,3.4,-23.6,5.73,1.70,-16.2,26.6
2015-04-10 01:17:00,0.0,1.92529,0.00047,404.818,0.042,0.1161,0.0022,140.004,44.999,32403.99713,1.92749,405.383,32.750,45.067,45.000,0.00,0.09,-272.73,-272.78,6,691,-3,22.1,3.5,-23.5,22.0,3.4,-23.6,5.73,1.98,-16.2,26.6
2015-04-10 01:18:00,0.0,1.92525,0.00040,404.805,0.033,0.1165,0.0015,140.000,44.999,32402.02308,1.92743,405.373,32.742,45.068,45.000,0.00,0.09,-272.72,-272.78,5,691,-3,22.0,3.5,-23.6,22.0,3.4,-23.6,5.73,1.66,-16.2,26.5
2015-04-10 01:19:00,0.0,1.92516,0.00042,404.795,0.046,0.1168,0.0015,140.000,44.999,32401.27630,1.92743,405.365,32.701,45.068,45.000,0.00,0.09,-272.73,-272.78,5,691,-3,22.0,3.5,-23.5,22.0,3.4,-23.8,5.73,2.00,-16.2,26.4
2015-04-10 01:20:00,0.0,1.92533,0.00032,404.739,0.041,0.1177,0.0015,139.998,45.000,32399.21984,1.92756,405.311,32.688,45.068,45.000,0.00,0.09,-272.73,-272.78,6,691,-3,22.0,3.5,-23.4,21.9,3.4,-23.8,5.73,1.65,-16.2,26.4
2015-04-10 01:21:00,0.0,1.92479,0.00036,404.798,0.026,0.1179,0.0018,139.999,45.000,32400.58752,1.92701,405.374,32.657,45.068,45.000,0.00,0.09,-272.73,-272.78,5,691,-3,22.0,3.5,-23.4,21.9,3.4,-23.8,5.73,2.01,-16.3,26.2
2015-04-10 01:22:00,0.0,1.92548,0.00049,404.748,0.040,0.1187,0.0018,139.997,44.999,32395.81948,1.92771,405.328,32.625,45.068,45.000,0.00,0.09,-272.71,-272.77,7,691,-3,21.9,3.5,-23.3,21.9,3.4,-23.8,5.73,1.66,-16.2,26.2
2015-04-10 01:23:00,0.0,1.92586,0.00036,404.734,0.034,0.1174,0.0012,140.000,45.000,32395.81388,1.92811,405.306,32.623,45.068,45.000,0.00,0.09,-272.73,-272.78,5,691,-3,21.9,3.5,-23.4,21.9,3.4,-23.8,5.73,2.00,-16.2,26.2
2015-04-10 01:24:00,0.0,1.92551,0.00039,404.775,0.024,0.1171,0.0022,140.002,45.000,32395.07335,1.92775,405.345,32.616,45.068,45.000,0.00,0.09,-272.72,-272.78,6,691,-3,21.9,3.5,-23.5,21.8,3.4,-23.8,5.73,1.69,-16.3,26.2
2015-04-10 01:25:00,0.0,1.92537,0.00033,404.789,0.031,0.1160,0.0011,139.998,45.000,32394.30629,1.92757,405.354,32.602,45.068,45.000,0.00,0.09,-272.72,-272.78,5,691,-3,21.8,3.5,-23.6,21.8,3.4,-23.8,5.73,1.94,-16.3,26.2
2015-04-10 01:26:00,0.0,1.92543,0.00031,404.795,0.032,0.1168,0.0019,139.998,45.000,32393.73121,1.92764,405.365,32.623,45.068,45.000,0.00,0.09,-272.73,-272.79,6,691,-3,21.8,3.5,-23.5,21.8,3.4,-23.8,5.73,1.78,-16.3,26.2
2015-04-10 01:27:00,0.0,1.92513,0.00033,404.769,0.032,0.1172,0.0018,140.003,45.000,32397.65790,1.92735,405.339,32.630,45.069,45.001,0.00,0.09,-272.72,-272.78,5,691,-3,21.8,3.5,-23.5,21.8,3.4,-23.8,5.73,1.82,-16.3,26.2
2015-04-10 01:28:00,0.0,1.92522,0.00031,404.755,0.050,0.1174,0.0020,139.998,45.000,32396.39566,1.92747,405.328,32.664,45.069,45.001,0.00,0.09,-272.72,-272.77,7,691,-3,21.8,3.5,-23.4,21.8,3.4,-23.8,5.73,1.93,-16.3,26.3
2015-04-10 01:29:00,0.0,1.92508,0.00041,404.739,0.035,0.1180,0.0016,140.000,45.001,32397.94206,1.92733,405.314,32.696,45.069,45.001,0.00,0.09,-272.72,-272.78,5,691,-3,21.8,3.5,-23.4,21.8,3.4,-23.8,5.73,1.68,-16.3,26.3
2015-04-10 01:30:00,0.0,1.92516,0.00040,404.746,0.042,0.1160,0.0014,139.996,45.000,32397.50678,1.92733,405.312,32.747,45.069,45.000,0.00,0.09,-272.73,-272.78,7,691,-3,21.8,3.5,-23.5,21.8,3.4,-23.8,5.73,2.02,-16.3,26.3
2015-04-10 01:31:00,0.0,1.92542,0.00034,404.737,0.033,0.1161,0.0016,140.002,45.000,32399.34323,1.92760,405.304,32.752,45.068,45.000,0.00,0.09,-272.72,-272.78,5,690,-3,21.8,3.5,-23.5,21.7,3.4,-23.8,5.73,1.64,-16.3,26.3
2015-04-10 01:32:00,0.0,1.92532,0.00058,404.711,0.047,0.1157,0.0014,139.999,45.000,32399.22442,1.92753,405.276,32.764,45.068,45.000,0.00,0.09,-272.72,-272.77,7,691,-3,21.7,3.5,-23.6,21.7,3.5,-23.8,5.73,2.01,-16.3,26.3
2015-04-10 01:33:00,0.0,1.92545,0.00057,404.680,0.025,0.1159,0.0013,140.000,45.000,32400.28761,1.92768,405.244,32.764,45.068,45.000,0.00,0.09,-272.72,-272.78,5,691,-3,21.7,3.5,-23.7,21.7,3.5,-23.7,5.73,1.67,-16.3,26.3
2015-04-10 01:34:00,0.0,1.92528,0.00037,404.697,0.035,0.1154,0.0016,139.998,45.000,32400.85288,1.92747,405.259,32.756,45.068,44.999,0.00,0.09,-272.72,-272.78,6,691,-3,21.7,3.5,-23.6,21.7,3.5,-23.7,5.73,1.98,-16.3,26.3
2015-04-10 01:35:00,0.0,1.92536,0.00028,404.668,0.037,0.1152,0.0012,139.998,45.000,32400.52598,1.92752,405.231,32.743,45.068,44.999,0.00,0.09,-272.72,-272.77,6,691,-3,21.7,3.5,-23.7,21.7,3.5,-23.7,5.73,1.69,-16.3,26.4
2015-04-10 01:36:00,0.0,1.92539,0.00035,404.688,0.038,0.1159,0.0015,139.999,45.000,32399.82115,1.92761,405.252,32.711,45.068,44.999,0.00,0.09,-272.73,-272.78,6,691,-3,21.7,3.5,-23.6,21.7,3.5,-23.7,5.73,1.98,-16.3,26.3
2015-04-10 01:37:00,0.0,1.92545,0.00039,404.686,0.042,0.1172,0.0022,139.998,45.000,32398.84250,1.92767,405.259,32.688,45.068,44.999,0.00,0.09,-272.73,-272.79,6,691,-3,21.7,3.6,-23.4,21.7,3.5,-23.8,5.73,1.69,-16.3,26.3
2015-04-10 01:38:00,0.0,1.92541,0.00034,404.664,0.029,0.1179,0.0014,139.997,45.000,32398.41082,1.92766,405.237,32.667,45.068,45.000,0.00,0.09,-272.72,-272.78,5,691,-3,21.7,3.6,-23.4,21.7,3.5,-23.8,5.73,1.98,-16.3,26.3
2015-04-10 01:39:00,0.0,1.92547,0.00034,404.663,0.036,0.1177,0.0013,139.999,45.000,32396.68035,1.92768,405.239,32.625,45.068,45.000,0.00,0.09,-272.72,-272.78,7,691,-3,21.7,3.6,-23.4,21.6,3.5,-23.8,5.73,1.68,-16.3,26.3
2015-04-10 01:40:00,0.0,1.92545,0.00042,404.676,0.037,0.1195,0.0019,140.001,45.000,32394.54158,1.92772,405.256,32.621,45.068,45.000,0.00,0.09,-272.73,-272.78,5,691,-3,21.7,3.6,-23.2,21.6,3.5,-23.8,5.73,1.99,-16.3,26.2
2015-04-10 01:41:00,0.0,1.92505,0.00043,404.670,0.028,0.1189,0.0016,139.999,45.000,32395.12887,1.92732,405.251,32.587,45.068,45.000,0.00,0.09,-272.72,-272.78,7,692,-3,21.7,3.6,-23.2,21.6,3.5,-23.8,5.73,1.69,-16.2,26.1
2015-04-10 01:42:00,0.0,1.92528,0.00029,404.665,0.025,0.1200,0.0017,139.997,45.000,32393.32781,1.92755,405.250,32.596,45.068,45.000,0.00,0.09,-272.72,-272.78,5,691,-2,21.7,3.6,-23.3,21.6,3.5,-23.8,5.73,1.96,-16.2,26.2
2015-04-10 01:43:00,0.0,1.92548,0.00039,404.659,0.036,0.1197,0.0018,139.997,45.000,32390.05303,1.92775,405.243,32.590,45.068,45.000,0.00,0.09,-272.73,-272.78,7,691,-2,21.6,3.6,-23.3,21.6,3.5,-23.8,5.73,1.74,-16.2,26.1
2015-04-10 01:44:00,0.0,1.92541,0.00037,404.689,0.037,0.1194,0.0016,139.997,45.000,32390.23180,1.92768,405.270,32.606,45.068,45.000,0.00,0.09,-272.73,-272.78,5,691,-2,21.6,3.6,-23.3,21.5,3.5,-23.8,5.73,1.87,-16.2,26.1
2015-04-10 01:45:00,0.0,1.92556,0.00032,404.676,0.034,0.1179,0.0020,139.998,45.000,32389.87345,1.92779,405.253,32.620,45.068,45.000,0.00,0.09,-272.73,-272.78,7,691,-2,21.6,3.6,-23.4,21.5,3.5,-23.8,5.73,1.88,-16.2,26.1
2015-04-10 01:46:00,0.0,1.92555,0.00034,404.689,0.029,0.1193,0.0017,139.999,45.000,32390.77112,1.92780,405.270,32.626,45.068,45.000,0.00,0.09,-272.72,-272.78,5,691,-2,21.6,3.6,-23.3,21.5,3.5,-23.8,5.73,1.72,-16.2,26.1